Location: Rounton
(54.4000°N, 1.3500°W)
Time: 14:58:03
(UTC+01:00)

deb Delta 126 - Pass Details

Date: 06 July 2022
Orbit: 1120 x 1970 km, 101.5° (Epoch: 15 August)

Event Time Altitude Azimuth Distance (km) Brightness Sun altitude
Rises 02:26:49 0° 52° (NE) 4,863 ? -11.2°
Reaches altitude 10° 02:30:49 10° 36° (NE) 4,013 ? -11.0°
Maximum altitude 02:36:40 18° 359° (N) 3,550 ? -10.7°
Drops below altitude 10° 02:42:53 10° 322° (NW) 4,318 ? -10.4°
Sets 02:47:25 0° 306° (NW) 5,377 ? -10.1°
